SCP
0 0 0 0 0 0 0 0 0 0 0 0 0 0 0 0 0 0 0 0 0 0 0 0 0 0 0 0 0 0 0 0 0 0 0 0 0 0 0 0 0 0 0
0 0 0 0 0 0 0 0 0 0 0 0 -0 0 0 0 0 0 0 0 0 0 0 0 0 0 0 0 0 0 0 0 0 0 0 0 0 0 0 0 0 0 0
0 0 0 0 0 0 0 0 0 0 0 0 -0 0 0 0 0 0 0 0 0 0 0 0 0 0 0 0 0 0 0 0 0 0 0 0 0 0 0 0 0 0 0
0 0 0 0 0 0 0 0 0 0 0 0 0 0 0 0 0 0 0 0 0 0 0 0 0 0 0 0 0 0 0 0 0 0 0 0 0 0 0 0 0 0 0
0 0 0 0 0 0 0 0 0 0 0 0 0 0 0 0 0 0 0 0 0 0 0 0 0 0 0 0 0 0 0 0 0 0 0 0 0 0 0 0 0 0 0
0 0 0 0 0 0 0 0 0 0 0 0 0 0 0 0 0 0 0 0 0 0 0 0 0 0 0 0 0 0 0 0 0 0 0 0 0 0 0 0 0 0 0
0 0 0 0 0 0 0 0 0 0 0 0 0 0 0 0 0 0 0 0 0 0 0 0 0 0 0 0 0 0 0 0 0 0 0 0 0 0 0 0 0 0 0
0 0 0 0 0 0 0 0 0 0 0 0 0 0 0 0 0 0 0 0 0 0 0 0 0 0 0 0 0 0 0 0 0 0 0 0 0 0 0 0 0 0 0
0 0 0 0 0 0 0 0 0 0 0 0 0 0 0 0 0 0 0 0 0 0 0 0 0 0 0 0 0 0 0 0 0 0 0 0 0 0 0 0 0 0 0
0 0 0 0 0 0 0 0 0 0 0 0 0 0 0 0 0 0 0 0 0 0 0 0 0 0 0 0 0 0 0 0 0 0 0 0 0 0 0 0 0 0 0
0 0 0 0 0 0 0 0 0 0 0 0 0 0 0 0 0 0 0 0 0 0 0 0 0 0 0 0 0 0 0 0 0 0 0 0 0 0 0 0 0 0 0
0 0 0 0 0 0 0 0 0 0 0 0 0 0 0 0 0 0 0 0 0 0 0 0 0 0 0 0 0 0 0 0 0 0 0 0 0 0 0 0 0 0 0
0 0 0 0 0 0 0 0 0 0 0 0 0 0 0 0 0 0 0 0 0 0 0 0 0 0 0 0 0 0 0 0 0 0 0 0 0 0 0 0 0 0 0
0 0 0 0 0 0 0 0 0 0 0 0 0 0 0 0 0 0 0 0 0 0 0 0 0 0 0 0 0 0 0 0 0 0 0 0 0 0 0 0 0 0 0
0 0 0 0 0 0 0 0 0 0 0 0 0 0 0 0 0 0 0 0 0 0 0 0 0 0 0 0 0 0 0 0 0 0 0 0 0 0 0 0 0 0 0
0 0 0 0 0 0 0 0 0 0 0 0 0 0 0 0 0 0 0 0 0 0 0 0 0 0 0 0 0 0 0 0 0 0 0 0 0 0 0 0 0 0 0
0 0 0 0 0 0 0 0 0 0 0 0 0 0 0 0 0 0 0 0 0 0 0 0 0 0 0 0 0 0 0 0 0 0 0 0 0 0 0 0 0 0 0
0 0 0 0 0 0 0 0 0 0 0 0 0 0 0 0 0 0 0 0 0 0 0 0 0 0 0 0 0 0 0 0 0 0 0 0 0 0 0 0 0 0 0
0 0 0 0 0 0 0 0 0 0 0 0 0 0 0 0 0 0 0 0 0 0 0 0 0 0 0 0 0 0 0 0 0 0 0 0 0 0 0 0 0 0 0
0 0 0 0 0 0 0 0 0 0 0 0 0 0 0 0 0 0 0 0 0 0 0 0 0 0 0 0 0 0 0 0 0 0 0 0 0 0 0 0 0 0 0
0 0 0 0 0 0 0 0 0 0 0 0 0 0 0 0 0 0 0 0 0 0 0 0 0 0 0 0 0 0 0 0 0 0 0 0 0 0 0 0 0 0 0
0 0 0 0 0 0 0 0 0 0 0 0 0 0 0 0 0 0 0 0 0 0 0 0 0 0 0 0 0 0 0 0 0 0 0 0 0 0 0 0 0 0 0
0 0 0 0 0 0 0 0 0 0 0 0 0 0 0 0 0 0 0 0 0 0 0 0 0 0 0 0 0 0 0 0 0 0 0 0 0 0 0 0 0 0 0
0 0 0 0 0 0 0 0 0 0 0 0 0 0 0 0 0 0 0 0 0 0 0 0 0 0 0 0 0 0 0 0 0 0 0 0 0 0 0 0 0 0 0
0 0 0 0 0 0 0 0 0 0 0 0 0 0 0 0 0 0 0 0 0 0 0 0 0 0 0 0 0 0 0 0 0 0 0 0 0 0 0 0 0 0 0
0 0 0 0 0 0 0 0 0 0 0 0 0 0 0 0 0 0 0 0 0 0 0 0 0 0 0 0 0 0 0 0 0 0 0 0 0 0 0 0 0 0 0
Wind_Speed_500mb
51 44 42 42 41 41 42 38 37 33 31 31 31 30 28 26 27 26 24 21 19 18 15 13 11 9 7 6 6 8 11 12 14 13 16 20 23 26 29 33 35 36 36
54 49 47 46 46 45 42 39 38 36 36 37 36 34 32 32 31 27 23 21 19 17 16 13 14 14 14 9 7 9 11 11 12 16 21 23 27 31 34 35 36 36 37
58 53 50 50 47 46 43 42 40 42 40 40 38 36 33 30 27 25 23 21 21 20 18 17 20 19 14 10 6 9 12 16 17 20 22 27 33 34 35 36 34 34 36
62 57 54 54 50 49 47 47 44 44 43 39 34 32 31 30 29 27 27 25 24 23 22 24 26 21 16 10 8 13 16 20 20 22 27 29 33 35 34 34 36 38 39
67 63 59 55 53 53 54 51 48 46 41 37 35 33 34 35 31 30 29 28 27 25 28 30 31 26 19 15 14 19 23 25 25 26 28 30 28 31 33 36 38 40 43
71 67 65 60 56 58 57 55 50 47 43 37 37 37 34 33 32 29 28 29 29 29 32 34 32 29 25 23 21 19 24 26 26 26 26 28 32 33 34 39 41 41 42
76 73 70 65 61 64 59 57 53 50 47 40 37 36 34 30 28 28 29 32 35 37 33 37 35 34 33 31 26 29 26 26 27 28 29 33 31 34 39 40 40 40 39
82 79 75 71 64 59 62 60 57 53 50 42 38 27 18 14 22 28 28 31 36 36 38 42 40 38 39 36 34 26 26 23 23 23 23 29 34 35 35 36 37 37 38
84 81 77 72 68 66 63 61 59 57 53 47 44 33 13 15 14 13 15 17 27 36 42 47 45 47 46 36 33 23 18 20 19 21 26 31 33 33 35 35 36 37 40
82 78 72 69 72 70 67 62 57 59 57 56 49 51 47 20 12 14 15 26 33 41 47 48 51 51 43 37 27 21 12 17 21 29 29 30 31 31 32 34 36 37 39
81 81 76 71 75 71 69 66 60 60 62 62 60 54 56 56 52 39 25 36 36 39 45 48 47 42 34 24 18 18 17 21 23 26 28 30 30 32 32 33 36 36 35
85 82 85 79 69 73 74 71 65 63 64 66 66 65 65 61 63 61 51 40 53 44 45 42 39 30 26 21 14 14 13 23 29 32 32 33 35 35 34 35 32 29 30
85 83 82 86 85 77 74 74 71 72 70 68 67 69 69 73 69 61 57 55 59 48 39 45 35 27 18 9 5 11 24 29 34 33 34 34 34 34 30 30 31 29 29
86 74 73 77 83 85 77 81 79 76 76 74 69 68 71 75 76 77 73 64 36 32 41 39 32 21 12 8 15 12 29 32 31 31 33 32 30 30 31 31 31 29 27
83 82 76 72 71 77 74 76 87 82 81 78 71 70 73 81 81 81 86 83 77 38 41 36 25 18 10 8 15 21 27 25 28 28 28 30 30 29 31 30 28 26 24
74 81 82 77 73 69 70 66 75 87 85 82 81 75 77 77 93 78 80 81 74 61 35 39 22 11 10 19 23 21 19 23 25 29 25 25 25 27 30 29 28 27 22
60 53 57 73 73 68 65 66 66 70 86 83 81 79 77 72 67 56 46 34 21 28 35 32 18 19 21 19 15 17 18 19 20 23 23 24 25 26 28 28 26 23 20
40 43 36 46 78 70 68 69 71 73 79 82 81 65 62 51 44 34 34 32 29 21 19 19 29 27 20 15 13 12 13 16 18 20 19 19 22 25 25 25 27 24 22
42 45 43 50 64 56 55 70 76 78 70 56 54 52 45 39 32 27 25 17 13 14 19 22 29 23 16 7 8 8 10 13 14 16 15 22 24 24 22 26 24 13 16
59 61 61 48 23 33 36 39 42 43 37 48 45 42 44 39 35 28 22 22 27 24 22 24 21 19 14 9 4 4 6 8 10 11 17 21 22 20 22 23 13 20 21
62 58 52 38 50 46 46 52 47 41 49 56 51 46 42 38 33 30 29 29 27 24 23 21 16 14 12 6 4 5 5 5 7 9 13 17 16 17 19 14 13 16 22
45 46 31 70 65 61 65 60 57 61 66 62 60 51 44 40 40 36 32 29 29 25 19 14 13 10 7 3 2 6 8 8 7 10 12 15 12 19 20 13 18 18 37
22 23 48 76 79 75 81 74 69 69 65 58 57 51 47 39 35 33 32 28 25 20 15 10 8 7 5 4 6 10 11 10 10 10 12 11 13 19 22 19 15 27 36
26 33 41 32 34 39 41 55 61 65 63 59 53 46 44 44 36 29 25 22 20 17 13 10 7 6 6 7 9 11 13 15 15 15 13 7 14 19 17 13 13 42 41
40 43 47 50 43 57 58 60 67 69 66 56 48 44 38 31 30 25 19 16 17 14 9 6 7 8 8 9 11 14 15 15 13 13 6 15 13 18 11 14 22 38 40
45 56 64 64 68 71 63 61 64 69 67 61 49 38 36 27 20 22 17 14 10 9 5 6 9 12 13 14 14 13 13 15 15 11 15 20 19 26 14 9 40 39 46
Wind_Direction_500mb
236 242 245 238 229 225 221 223 223 228 227 228 228 228 231 234 237 237 238 244 247 251 258 261 262 256 252 250 281 320 326 331 334 325 321 326 325 325 325 325 324 322 319
236 243 246 240 232 228 223 223 226 231 230 231 230 230 231 234 238 243 246 246 251 255 260 255 237 235 232 247 289 314 333 326 296 311 318 322 324 322 323 323 325 326 322
238 243 245 240 234 228 224 225 229 231 231 233 234 238 241 247 254 251 249 250 250 254 257 243 232 236 241 255 289 310 287 280 294 309 313 316 317 320 323 324 325 327 327
235 240 243 239 232 230 230 232 234 234 235 239 244 246 250 252 250 247 246 248 249 249 250 239 234 239 241 247 287 267 268 283 301 307 311 317 319 321 323 325 328 329 324
235 238 238 237 234 233 232 235 237 236 237 238 244 246 246 248 246 243 245 250 250 248 246 238 233 233 237 242 250 267 277 289 304 305 309 319 329 329 326 326 327 324 323
235 237 236 234 232 231 233 234 236 237 238 240 246 250 251 253 253 253 253 247 246 244 243 233 227 229 239 243 253 263 280 299 300 307 315 320 324 327 326 325 325 324 325
234 233 235 235 232 230 231 232 235 235 236 238 248 252 260 259 259 254 247 249 246 240 233 223 225 232 235 243 251 271 276 285 304 314 318 317 320 323 325 324 325 327 328
236 235 233 233 234 234 231 231 233 234 234 232 240 253 270 256 238 245 246 241 235 228 222 219 226 229 238 240 246 250 269 282 297 306 313 315 318 319 322 324 326 327 329
234 236 236 234 232 232 234 235 234 233 234 231 232 226 204 207 184 223 235 227 218 218 219 216 219 229 229 227 245 240 258 283 297 310 315 313 316 321 327 332 330 329 329
232 232 235 231 231 229 233 235 237 237 237 234 231 229 224 198 186 172 192 191 203 205 208 218 220 217 221 224 225 240 260 299 307 311 314 315 316 327 329 326 324 326 327
237 232 233 233 231 232 234 237 239 240 239 240 236 234 232 232 230 231 200 198 203 209 217 213 212 204 204 208 223 250 267 295 301 310 317 314 319 323 326 324 321 323 325
243 238 234 235 237 238 236 238 241 244 245 243 242 239 236 233 233 228 230 216 209 196 197 195 194 198 207 215 228 296 315 303 320 323 317 316 318 321 324 318 319 324 328
248 242 237 236 238 243 242 241 241 245 243 245 246 244 243 241 243 243 242 227 207 197 188 193 186 185 187 226 246 288 309 323 317 309 306 315 320 321 324 320 320 330 330
253 254 249 242 242 245 247 245 242 242 244 244 245 246 246 245 247 247 246 234 199 184 191 189 181 185 208 226 285 317 309 306 305 311 310 317 319 325 319 319 332 335 333
253 257 252 245 244 245 244 248 245 239 242 244 245 248 251 250 250 247 251 245 240 176 174 175 172 188 231 302 293 290 292 300 306 301 315 319 323 325 322 329 327 330 337
250 252 248 245 240 241 244 246 243 238 239 242 244 248 256 256 245 245 231 231 216 210 151 168 174 186 245 257 269 281 297 307 306 300 318 323 322 318 320 321 328 332 331
235 234 255 248 242 236 238 241 243 240 237 240 243 245 245 235 226 210 197 180 176 156 149 138 183 209 229 250 275 290 299 300 299 316 330 324 322 318 319 326 333 332 338
253 262 248 262 254 246 235 238 239 233 232 232 240 230 211 192 178 173 168 160 157 154 132 175 200 206 209 234 259 292 307 321 324 322 321 309 309 311 317 325 330 331 335
258 260 257 268 251 244 245 234 224 219 218 211 193 169 169 172 163 153 152 139 111 147 177 193 195 193 193 225 274 301 323 320 310 304 309 312 313 314 322 329 330 334 301
249 255 250 254 223 198 156 155 164 152 153 167 170 173 170 169 162 159 137 154 171 168 165 181 184 176 186 198 224 274 279 288 294 292 310 310 309 312 325 324 318 302 325
234 245 222 211 160 158 163 164 166 169 181 183 169 165 157 144 130 137 160 156 148 152 157 165 165 159 148 158 228 269 298 319 299 278 301 306 296 313 331 326 314 316 341
245 229 219 184 185 182 183 186 181 180 175 171 162 145 131 139 145 148 148 143 138 135 133 141 154 153 141 131 303 315 333 335 324 289 298 299 302 325 331 317 302 335 337
239 235 206 188 175 179 186 183 174 162 152 143 135 132 137 141 144 140 136 134 131 127 131 135 142 124 89 42 0 344 333 331 331 315 320 294 309 324 322 317 311 335 330
188 189 188 178 158 149 161 156 146 139 131 127 126 135 137 134 129 127 127 128 126 131 118 104 91 54 31 10 354 344 338 342 338 330 325 313 318 334 321 306 320 335 332
174 171 166 176 185 137 140 135 132 124 116 123 129 124 122 126 136 133 129 133 124 107 96 72 52 29 16 10 3 348 339 331 334 325 310 340 337 341 304 278 316 332 331
164 160 153 148 144 137 131 133 130 127 128 135 138 136 134 128 140 148 142 120 103 96 71 28 10 6 6 2 358 346 338 340 354 344 336 344 341 357 337 283 331 332 335
Wind_Speed_850mb
51 44 42 42 41 41 42 38 37 33 31 31 31 30 28 26 27 26 24 21 19 18 15 13 11 9 7 6 6 8 11 12 14 13 16 20 23 26 29 33 35 36 36
54 49 47 46 46 45 42 39 38 36 36 37 36 34 32 32 31 27 23 21 19 17 16 13 14 14 14 9 7 9 11 11 12 16 21 23 27 31 34 35 36 36 37
58 53 50 50 47 46 43 42 40 42 40 40 38 36 33 30 27 25 23 21 21 20 18 17 20 19 14 10 6 9 12 16 17 20 22 27 33 34 35 36 34 34 36
62 57 54 54 50 49 47 47 44 44 43 39 34 32 31 30 29 27 27 25 24 23 22 24 26 21 16 10 8 13 16 20 20 22 27 29 33 35 34 34 36 38 39
67 63 59 55 53 53 54 51 48 46 41 37 35 33 34 35 31 30 29 28 27 25 28 30 31 26 19 15 14 19 23 25 25 26 28 30 28 31 33 36 38 40 43
71 67 65 60 56 58 57 55 50 47 43 37 37 37 34 33 32 29 28 29 29 29 32 34 32 29 25 23 21 19 24 26 26 26 26 28 32 33 34 39 41 41 42
76 73 70 65 61 64 59 57 53 50 47 40 37 36 34 30 28 28 29 32 35 37 33 37 35 34 33 31 26 29 26 26 27 28 29 33 31 34 39 40 40 40 39
82 79 75 71 64 59 62 60 57 53 50 42 38 27 18 14 22 28 28 31 36 36 38 42 40 38 39 36 34 26 26 23 23 23 23 29 34 35 35 36 37 37 38
84 81 77 72 68 66 63 61 59 57 53 47 44 33 13 15 14 13 15 17 27 36 42 47 45 47 46 36 33 23 18 20 19 21 26 31 33 33 35 35 36 37 40
82 78 72 69 72 70 67 62 57 59 57 56 49 51 47 20 12 14 15 26 33 41 47 48 51 51 43 37 27 21 12 17 21 29 29 30 31 31 32 34 36 37 39
81 81 76 71 75 71 69 66 60 60 62 62 60 54 56 56 52 39 25 36 36 39 45 48 47 42 34 24 18 18 17 21 23 26 28 30 30 32 32 33 36 36 35
85 82 85 79 69 73 74 71 65 63 64 66 66 65 65 61 63 61 51 40 53 44 45 42 39 30 26 21 14 14 13 23 29 32 32 33 35 35 34 35 32 29 30
85 83 82 86 85 77 74 74 71 72 70 68 67 69 69 73 69 61 57 55 59 48 39 45 35 27 18 9 5 11 24 29 34 33 34 34 34 34 30 30 31 29 29
86 74 73 77 83 85 77 81 79 76 76 74 69 68 71 75 76 77 73 64 36 32 41 39 32 21 12 8 15 12 29 32 31 31 33 32 30 30 31 31 31 29 27
83 82 76 72 71 77 74 76 87 82 81 78 71 70 73 81 81 81 86 83 77 38 41 36 25 18 10 8 15 21 27 25 28 28 28 30 30 29 31 30 28 26 24
74 81 82 77 73 69 70 66 75 87 85 82 81 75 77 77 93 78 80 81 74 61 35 39 22 11 10 19 23 21 19 23 25 29 25 25 25 27 30 29 28 27 22
60 53 57 73 73 68 65 66 66 70 86 83 81 79 77 72 67 56 46 34 21 28 35 32 18 19 21 19 15 17 18 19 20 23 23 24 25 26 28 28 26 23 20
40 43 36 46 78 70 68 69 71 73 79 82 81 65 62 51 44 34 34 32 29 21 19 19 29 27 20 15 13 12 13 16 18 20 19 19 22 25 25 25 27 24 22
42 45 43 50 64 56 55 70 76 78 70 56 54 52 45 39 32 27 25 17 13 14 19 22 29 23 16 7 8 8 10 13 14 16 15 22 24 24 22 26 24 13 16
59 61 61 48 23 33 36 39 42 43 37 48 45 42 44 39 35 28 22 22 27 24 22 24 21 19 14 9 4 4 6 8 10 11 17 21 22 20 22 23 13 20 21
62 58 52 38 50 46 46 52 47 41 49 56 51 46 42 38 33 30 29 29 27 24 23 21 16 14 12 6 4 5 5 5 7 9 13 17 16 17 19 14 13 16 22
45 46 31 70 65 61 65 60 57 61 66 62 60 51 44 40 40 36 32 29 29 25 19 14 13 10 7 3 2 6 8 8 7 10 12 15 12 19 20 13 18 18 37
22 23 48 76 79 75 81 74 69 69 65 58 57 51 47 39 35 33 32 28 25 20 15 10 8 7 5 4 6 10 11 10 10 10 12 11 13 19 22 19 15 27 36
26 33 41 32 34 39 41 55 61 65 63 59 53 46 44 44 36 29 25 22 20 17 13 10 7 6 6 7 9 11 13 15 15 15 13 7 14 19 17 13 13 42 41
40 43 47 50 43 57 58 60 67 69 66 56 48 44 38 31 30 25 19 16 17 14 9 6 7 8 8 9 11 14 15 15 13 13 6 15 13 18 11 14 22 38 40
45 56 64 64 68 71 63 61 64 69 67 61 49 38 36 27 20 22 17 14 10 9 5 6 9 12 13 14 14 13 13 15 15 11 15 20 19 26 14 9 40 39 46
Wind_Direction_850mb
236 242 245 238 229 225 221 223 223 228 227 228 228 228 231 234 237 237 238 244 247 251 258 261 262 256 252 250 281 320 326 331 334 325 321 326 325 325 325 325 324 322 319
236 243 246 240 232 228 223 223 226 231 230 231 230 230 231 234 238 243 246 246 251 255 260 255 237 235 232 247 289 314 333 326 296 311 318 322 324 322 323 323 325 326 322
238 243 245 240 234 228 224 225 229 231 231 233 234 238 241 247 254 251 249 250 250 254 257 243 232 236 241 255 289 310 287 280 294 309 313 316 317 320 323 324 325 327 327
235 240 243 239 232 230 230 232 234 234 235 239 244 246 250 252 250 247 246 248 249 249 250 239 234 239 241 247 287 267 268 283 301 307 311 317 319 321 323 325 328 329 324
235 238 238 237 234 233 232 235 237 236 237 238 244 246 246 248 246 243 245 250 250 248 246 238 233 233 237 242 250 267 277 289 304 305 309 319 329 329 326 326 327 324 323
235 237 236 234 232 231 233 234 236 237 238 240 246 250 251 253 253 253 253 247 246 244 243 233 227 229 239 243 253 263 280 299 300 307 315 320 324 327 326 325 325 324 325
234 233 235 235 232 230 231 232 235 235 236 238 248 252 260 259 259 254 247 249 246 240 233 223 225 232 235 243 251 271 276 285 304 314 318 317 320 323 325 324 325 327 328
236 235 233 233 234 234 231 231 233 234 234 232 240 253 270 256 238 245 246 241 235 228 222 219 226 229 238 240 246 250 269 282 297 306 313 315 318 319 322 324 326 327 329
234 236 236 234 232 232 234 235 234 233 234 231 232 226 204 207 184 223 235 227 218 218 219 216 219 229 229 227 245 240 258 283 297 310 315 313 316 321 327 332 330 329 329
232 232 235 231 231 229 233 235 237 237 237 234 231 229 224 198 186 172 192 191 203 205 208 218 220 217 221 224 225 240 260 299 307 311 314 315 316 327 329 326 324 326 327
237 232 233 233 231 232 234 237 239 240 239 240 236 234 232 232 230 231 200 198 203 209 217 213 212 204 204 208 223 250 267 295 301 310 317 314 319 323 326 324 321 323 325
243 238 234 235 237 238 236 238 241 244 245 243 242 239 236 233 233 228 230 216 209 196 197 195 194 198 207 215 228 296 315 303 320 323 317 316 318 321 324 318 319 324 328
248 242 237 236 238 243 242 241 241 245 243 245 246 244 243 241 243 243 242 227 207 197 188 193 186 185 187 226 246 288 309 323 317 309 306 315 320 321 324 320 320 330 330
253 254 249 242 242 245 247 245 242 242 244 244 245 246 246 245 247 247 246 234 199 184 191 189 181 185 208 226 285 317 309 306 305 311 310 317 319 325 319 319 332 335 333
253 257 252 245 244 245 244 248 245 239 242 244 245 248 251 250 250 247 251 245 240 176 174 175 172 188 231 302 293 290 292 300 306 301 315 319 323 325 322 329 327 330 337
250 252 248 245 240 241 244 246 243 238 239 242 244 248 256 256 245 245 231 231 216 210 151 168 174 186 245 257 269 281 297 307 306 300 318 323 322 318 320 321 328 332 331
235 234 255 248 242 236 238 241 243 240 237 240 243 245 245 235 226 210 197 180 176 156 149 138 183 209 229 250 275 290 299 300 299 316 330 324 322 318 319 326 333 332 338
253 262 248 262 254 246 235 238 239 233 232 232 240 230 211 192 178 173 168 160 157 154 132 175 200 206 209 234 259 292 307 321 324 322 321 309 309 311 317 325 330 331 335
258 260 257 268 251 244 245 234 224 219 218 211 193 169 169 172 163 153 152 139 111 147 177 193 195 193 193 225 274 301 323 320 310 304 309 312 313 314 322 329 330 334 301
249 255 250 254 223 198 156 155 164 152 153 167 170 173 170 169 162 159 137 154 171 168 165 181 184 176 186 198 224 274 279 288 294 292 310 310 309 312 325 324 318 302 325
234 245 222 211 160 158 163 164 166 169 181 183 169 165 157 144 130 137 160 156 148 152 157 165 165 159 148 158 228 269 298 319 299 278 301 306 296 313 331 326 314 316 341
245 229 219 184 185 182 183 186 181 180 175 171 162 145 131 139 145 148 148 143 138 135 133 141 154 153 141 131 303 315 333 335 324 289 298 299 302 325 331 317 302 335 337
239 235 206 188 175 179 186 183 174 162 152 143 135 132 137 141 144 140 136 134 131 127 131 135 142 124 89 42 0 344 333 331 331 315 320 294 309 324 322 317 311 335 330
188 189 188 178 158 149 161 156 146 139 131 127 126 135 137 134 129 127 127 128 126 131 118 104 91 54 31 10 354 344 338 342 338 330 325 313 318 334 321 306 320 335 332
174 171 166 176 185 137 140 135 132 124 116 123 129 124 122 126 136 133 129 133 124 107 96 72 52 29 16 10 3 348 339 331 334 325 310 340 337 341 304 278 316 332 331
164 160 153 148 144 137 131 133 130 127 128 135 138 136 134 128 140 148 142 120 103 96 71 28 10 6 6 2 358 346 338 340 354 344 336 344 341 357 337 283 331 332 335